User: anonymous   Login
Location: Three Oaks Observatory
(31.1535°N, 83.5955°W)
Time: 12:02:40
(UTC-04:00)
Language:

Hubble Space Telescope - Orbit

View from above orbital plane
View from above orbital plane
View from above satellite
View from above satellite

Ground track
Ground track

The orbit data is extracted from the following two-line orbital elements,

1 20580U 90037B   18294.57628821  .00000471  00000-0  17853-4 0  9997
2 20580  28.4706 359.5579 0002943  62.2946  82.4772 15.09116131364588
Epoch (UTC): 21 October 2018 13:49:51
Eccentricity: 0.0002943
inclination: 28.4706°
perigee height: 537 km
apogee height: 541 km
right ascension of ascending node: 359.5579°
argument of perigee: 62.2946°
revolutions per day: 15.09116131
mean anomaly at epoch: 82.4772°
orbit number at epoch: 36458

The dashed part of the orbit path shows where the satellite is in the earth's shadow,  

DLR